Hourly Data Report for September 05, 2017

All times are specified in Local Standard Time (LST). Add 1 hour to adjust for Daylight Saving Time where and when it is observed.

WOODSTOCK NEWBRIDGE
NEW BRUNSWICK

46°09'08.000" N
67°32'34.000" W
154.00 m
8105603
71606
EWD

Download Data

Hourly Data (September 2017)
Hourly Data Report for September 5, 2017
Temp Definition
°C
Dew Point Temp Definition
°C
Rel Hum Definition
%
Wind Dir Definition
10's deg

Wind Spd Definition
km/h
Visibility Definition
km
Stn Press Definition
kPa
Hmdx Definition


Wind Chill Definition


Weather Definition


TIME
00:00 16.4 12.5 78 15 6   98.92     LegendNANA
01:00 16.3 12.9 80 16 7   98.89     LegendNANA
02:00 16.1 13.1 82 15 9   98.82     LegendNANA
03:00 16.6 13.4 82 16 10   98.79     LegendNANA
04:00 16.3 13.5 83 16 9   98.72     LegendNANA
05:00 16.4 13.8 85 16 9   98.70     LegendNANA
06:00 16.3 13.9 86 16 11   98.72     LegendNANA
07:00 16.2 13.9 86 16 15   98.77     LegendNANA
08:00 17.0 14.0 83 16 13   98.71     LegendNANA
09:00 18.0 14.3 79 16 12   98.78     LegendNANA
10:00 19.3 14.5 74 18 13   98.85     LegendNANA
11:00 20.6 15.1 71 18 16   98.89 25   LegendNANA
12:00 21.5 15.3 68 19 13   98.91 26   LegendNANA
13:00 21.2 15.9 72 20 6   98.94 26   LegendNANA
14:00 20.9 16.4 75 20 5   98.96 26   LegendNANA
15:00 21.6 16.4 72 19 9   98.98 26   LegendNANA
16:00 22.3 16.5 70 20 9   98.99 27   LegendNANA
17:00 22.3 17.0 72 18 6   99.01 28   LegendNANA
18:00 21.4 17.3 77 0 1   98.99 27   LegendNANA
19:00 20.4 17.4 83 27 2   99.09 26   LegendNANA
20:00 19.8 17.2 85 8 3   99.12     LegendNANA
21:00 19.7 17.6 88 13 8   99.13     LegendNANA
22:00 18.6 17.6 94 14 11   99.10     LegendNANA
23:00 18.1 17.5 96 15 8   99.14     LegendNANA

Notes on Data Quality.

Legend

  • E = Estimated
  • M = Missing
  • NA = Not Available
  • ‡ = Partner data that is not subject to review by the National Climate Archives
Date modified: